User: anonymous   Login
Location: Paris
(48.8566°N, 2.3522°E)
Time: 10:48:32
(UTC+02:00)
Language:

Tiangong - Orbit

View from above orbital plane
View from above orbital plane
View from above satellite
View from above satellite

Ground track
Ground track

The orbit data is extracted from the following two-line orbital elements,

1 48274U 21035A   21288.99639457  .00006478  00000-0  77629-4 0  9999
2 48274  41.4698 266.2685 0001935 244.8846 176.1681 15.61405818 26599
Epoch (UTC): 15 October 2021 23:54:48
Eccentricity: 0.0001935
inclination: 41.4698°
perigee height: 382 km
apogee height: 385 km
right ascension of ascending node: 266.2685°
argument of perigee: 244.8846°
revolutions per day: 15.61405818
mean anomaly at epoch: 176.1681°
orbit number at epoch: 2659

The dashed part of the orbit path shows where the satellite is in the earth's shadow,  

DLR